Location: Casone le Fosse
(44.6547°N, 12.1103°E)
Time: 12:11:24
(UTC+00:00)

Cosmos 1486 Rocket - Pass Details

Date: 29 October 2020
Orbit: 758 x 784 km, 74.1° (Epoch: 27 November)

Event Time Altitude Azimuth Distance (km) Brightness Sun altitude
Rises 17:05:46 0° 340° (NNW) 3,283 7.4 -11.5°
Reaches altitude 10° 17:08:11 10° 343° (NNW) 2,350 6.6 -11.9°
Maximum altitude 17:13:32 69° 68° (ENE) 836 4.0 -12.8°
Drops below altitude 10° 17:18:48 10° 151° (SSE) 2,325 6.3 -13.8°
Sets 17:21:11 0° 154° (SSE) 3,245 7.0 -14.2°
